Helicity
-10 -11 23 20 18 20 17 15 10 9 4 3 2 2 -2 -5 -5 -5 5 1 -1 -12 -16 -13 7 30 42 49 43 42 49 44 45 26 28 28 32 37 56 56 56 50 51
10 4 22 27 24 23 23 23 19 15 11 12 11 9 5 0 -3 -8 -3 -2 -3 -7 -8 -7 -1 15 29 32 37 44 49 48 34 13 12 24 25 38 49 56 54 46 52
26 27 10 25 23 26 29 28 22 20 18 16 14 10 6 3 3 4 -8 -6 -13 1 -5 5 10 2 26 33 39 39 36 41 39 40 31 30 17 35 45 49 49 48 51
44 39 24 21 25 25 28 28 29 25 27 23 17 11 8 4 1 3 -3 -6 -9 27 26 20 24 14 10 37 37 28 24 22 27 34 30 11 24 40 34 34 36 38 39
80 95 40 29 30 29 29 32 28 23 26 31 27 23 15 10 7 6 3 5 10 37 51 38 30 27 23 28 38 27 26 22 15 13 27 9 37 42 38 35 29 34 26
155 121 71 57 41 34 35 37 31 23 21 30 29 26 22 20 18 15 13 15 18 34 55 42 34 26 27 28 32 30 33 28 14 9 13 36 59 47 40 46 43 34 39
110 98 87 71 59 49 47 48 41 35 34 31 30 32 25 16 18 21 22 19 23 29 40 36 31 27 23 21 19 13 37 31 31 23 19 24 72 71 51 39 38 37 38
114 99 84 74 60 60 60 57 57 45 46 41 34 34 29 24 19 19 26 27 30 28 29 29 32 29 28 24 21 20 45 41 41 36 29 38 46 93 68 54 46 33 29
121 123 112 95 86 70 53 59 49 40 40 35 35 25 31 26 27 25 27 34 33 32 36 36 32 28 31 31 31 36 48 53 58 54 42 64 55 93 82 69 52 39 32
113 109 112 114 92 73 37 36 29 31 30 26 26 24 29 27 29 31 31 32 33 44 47 52 47 42 44 48 48 50 51 58 71 65 52 62 59 43 81 78 61 46 33
108 104 103 93 84 81 91 66 48 38 23 31 41 35 35 50 57 64 66 64 56 40 36 48 52 57 61 66 65 62 63 106 98 97 83 40 43 60 87 101 80 62 45
110 93 89 87 84 86 84 85 85 79 51 45 55 62 72 68 61 61 65 55 48 49 55 51 55 63 78 118 118 93 117 140 140 125 112 72 47 61 76 120 107 90 64
103 92 91 88 85 82 84 86 98 94 82 65 57 60 58 69 72 71 74 98 95 73 99 101 100 102 116 144 135 140 134 147 148 155 119 79 57 45 65 119 123 100 88
119 94 86 83 82 73 68 72 67 66 67 73 80 78 70 67 73 76 78 76 84 108 114 114 124 120 129 117 126 143 147 164 164 161 142 86 45 47 76 130 138 118 92
114 103 86 79 71 65 64 58 63 65 67 70 81 89 90 91 93 101 103 104 94 81 97 120 129 122 116 102 109 122 120 145 166 191 169 105 87 58 88 134 147 118 82
104 99 81 72 67 65 56 54 55 61 69 87 99 107 118 122 123 123 123 120 116 125 131 128 139 133 126 135 119 110 112 112 117 115 163 164 108 116 122 142 136 124 105
115 98 77 72 69 62 53 52 59 65 84 91 96 111 124 126 128 135 121 104 89 90 111 126 138 135 122 116 109 98 81 73 81 79 70 102 120 116 123 100 112 126 123
143 103 105 101 82 63 52 57 64 74 82 87 93 106 118 121 121 114 103 99 100 106 106 117 129 127 134 122 115 101 103 119 105 85 94 76 71 64 90 92 86 92 102
123 140 135 104 87 81 74 67 77 90 101 104 88 87 93 111 118 103 91 93 103 100 95 99 99 97 89 93 88 86 90 93 100 110 98 91 84 86 92 88 83 99 97
170 175 150 136 122 100 85 76 75 70 56 58 74 71 93 99 109 109 98 89 102 107 101 95 88 88 86 76 80 92 103 103 99 108 113 130 136 122 107 113 118 130 125
220 194 161 140 113 94 76 70 67 46 46 48 52 50 90 84 93 95 91 94 94 81 78 88 95 89 86 87 88 87 84 87 102 133 142 132 145 144 141 138 150 150 121
211 174 148 121 88 74 75 54 41 35 30 46 49 64 57 55 95 96 97 93 80 68 69 84 98 100 83 89 81 76 77 75 92 78 75 62 70 66 81 87 99 110 108
190 146 120 86 68 58 57 57 49 42 37 42 50 53 44 52 67 66 68 70 75 59 62 68 79 81 63 69 73 77 62 68 53 40 65 77 104 104 89 43 65 81 60
108 104 88 70 51 48 58 60 46 45 44 50 62 47 34 33 56 63 62 46 41 44 54 65 67 70 63 58 50 64 96 126 100 74 77 53 56 103 107 111 38 11 -27
92 88 62 51 45 46 58 61 61 63 66 62 49 33 24 28 54 59 48 43 44 52 51 58 79 86 76 62 44 28 42 63 101 133 95 71 50 62 109 66 42 32 45
77 70 55 53 41 39 60 69 79 75 68 65 43 37 25 21 38 33 25 29 35 46 56 59 67 61 50 44 45 42 43 36 34 67 80 46 65 53 30 56 62 53 54
Wind_Speed
29 34 34 33 33 33 34 35 36 36 35 36 37 38 37 36 34 34 35 36 36 38 37 38 38 37 34 35 35 33 30 30 32 32 33 34 34 32 33 31 31 29 29
32 34 33 32 31 31 31 32 34 36 37 37 38 38 38 37 36 35 35 36 34 35 36 37 37 35 34 35 34 32 29 29 31 30 30 31 32 31 30 31 30 29 28
28 30 31 29 28 28 28 30 31 33 34 35 36 36 36 36 36 36 37 39 37 30 34 35 36 36 32 32 33 31 30 29 29 29 28 30 30 30 29 28 28 28 28
28 28 29 28 28 27 27 28 28 29 31 32 33 34 34 34 36 36 38 41 40 24 31 34 36 36 34 30 30 29 29 30 30 29 27 27 27 28 28 27 27 27 26
25 26 28 28 28 27 27 26 26 27 27 27 29 31 33 33 34 34 36 39 36 27 26 30 33 33 32 30 29 27 26 28 31 35 36 34 20 25 26 25 26 26 28
23 25 27 28 28 28 28 27 26 26 27 26 26 27 31 34 35 35 35 35 35 27 24 28 32 33 30 27 26 24 22 24 28 33 38 35 23 25 25 25 22 23 25
27 28 29 29 30 30 30 30 29 29 28 27 27 27 30 32 33 33 34 33 32 29 25 27 30 32 32 30 26 26 19 24 28 31 33 39 21 21 24 27 26 25 24
28 29 30 31 31 31 31 31 31 31 30 29 29 28 29 30 31 32 33 33 32 31 29 29 30 31 31 31 29 28 25 26 30 33 34 39 18 18 21 24 25 28 28
28 30 32 34 34 34 34 32 33 32 33 34 34 35 35 35 34 32 32 32 32 31 30 30 31 32 32 32 32 30 29 27 30 32 35 37 29 18 21 23 23 25 28
29 32 34 37 37 38 35 34 36 35 35 37 37 37 38 40 40 39 36 35 34 33 32 32 32 33 34 34 35 35 34 33 36 36 38 38 37 24 24 23 24 25 27
30 34 36 37 40 41 42 39 43 43 39 44 45 45 44 42 43 46 42 37 35 36 35 33 33 35 35 36 38 38 37 38 38 38 39 40 37 30 24 26 26 27 28
30 33 36 38 41 43 44 47 49 49 40 46 47 49 50 48 48 50 51 42 38 31 28 30 28 29 32 35 36 33 34 33 32 35 37 36 36 34 31 27 26 27 29
28 32 36 38 41 43 45 46 46 47 47 49 52 52 52 54 55 56 57 56 56 48 38 37 39 40 37 35 36 37 37 37 38 37 37 34 32 33 30 27 28 31 32
26 29 33 38 40 42 43 45 47 50 54 55 56 56 57 59 60 61 61 62 62 60 61 52 47 48 46 44 42 41 42 43 45 46 45 41 38 36 33 31 32 33 34
27 29 32 36 39 41 44 47 51 55 58 61 62 61 60 62 64 62 63 65 67 68 68 68 65 64 59 57 55 53 52 52 50 51 53 49 44 42 38 39 39 39 39
26 28 32 36 39 42 46 51 55 59 62 63 64 64 64 63 63 63 65 66 67 68 70 69 70 69 68 66 65 66 66 62 59 58 55 54 55 52 44 44 46 47 46
25 26 33 35 39 46 52 56 60 61 62 63 63 63 62 62 63 62 64 67 68 68 70 70 70 69 67 64 64 67 71 72 72 71 68 66 67 60 56 56 51 52 51
25 31 31 36 44 51 55 58 59 59 60 60 60 58 62 65 60 62 65 67 67 67 67 67 67 67 67 67 67 66 66 65 67 72 72 73 72 70 67 60 60 58 55
25 29 32 40 48 53 55 57 56 55 56 59 59 60 63 62 62 63 62 62 63 62 61 61 61 63 66 69 70 67 64 64 65 66 72 74 74 75 77 73 71 67 65
23 28 36 43 48 52 53 53 53 57 60 59 58 61 61 60 61 60 59 59 59 59 58 56 58 58 59 62 64 66 65 65 65 64 70 72 74 74 74 76 79 78 74
25 33 40 42 46 49 50 52 53 56 59 58 59 58 56 61 59 56 58 58 57 55 55 54 53 56 58 60 62 66 64 61 62 64 65 66 71 73 76 79 78 78 81
32 37 37 38 41 44 44 47 48 54 55 60 58 57 58 54 54 53 55 58 53 51 50 49 48 51 51 54 56 63 62 63 55 62 68 70 70 69 72 73 75 78 77
35 34 32 33 37 40 42 47 49 53 55 57 58 58 56 54 52 54 54 54 55 53 51 50 49 49 52 53 52 50 56 57 75 57 64 62 68 71 71 69 66 71 77
30 28 27 32 36 40 40 45 49 55 59 55 57 54 55 54 51 52 51 51 54 53 52 51 50 48 48 54 53 46 40 43 61 72 59 67 65 70 64 62 59 66 70
25 24 26 31 35 37 37 40 43 47 49 50 53 54 55 54 53 50 47 49 48 50 50 52 52 50 46 44 44 41 44 43 40 47 65 60 60 56 48 51 63 62 61
25 23 27 31 32 30 31 35 40 43 47 50 52 52 55 54 53 49 49 46 47 48 48 48 46 41 36 32 33 36 39 40 35 40 44 45 46 41 40 50 54 55 51
Wind_Direction
66 90 90 87 79 66 55 51 42 28 17 13 15 18 17 15 14 4 4 7 12 15 14 8 9 19 19 11 11 16 28 26 25 27 27 26 21 17 2 9 10 8 7
76 89 86 85 79 69 57 48 43 41 35 25 22 24 22 21 17 4 356 351 359 8 12 12 7 11 10 8 12 14 20 19 25 26 23 22 21 20 14 10 10 5 359
64 79 76 71 63 57 48 43 36 32 28 27 23 23 20 21 27 31 -0 340 339 359 4 8 7 2 15 15 14 17 19 15 15 19 21 13 12 15 10 10 11 11 7
73 67 66 61 54 48 47 41 36 33 28 25 23 21 20 20 9 9 1 342 330 39 10 5 3 360 358 12 10 7 5 3 4 7 13 5 8 12 10 4 3 2 2
48 59 56 49 47 43 40 41 35 33 30 26 20 15 5 9 8 10 1 350 355 29 27 19 13 10 8 8 12 13 12 5 352 340 341 347 20 9 7 5 358 354 346
15 23 30 30 35 38 36 33 29 22 15 15 13 8 1 353 354 354 356 354 353 9 15 8 3 2 5 6 7 13 15 10 358 346 338 338 1 353 356 356 358 355 351
21 19 18 21 21 21 20 19 18 16 12 10 6 2 355 350 349 349 349 352 352 355 357 353 352 352 352 352 352 352 1 354 347 341 339 332 359 360 348 340 341 343 343
23 21 17 16 17 16 14 12 10 7 6 4 0 358 353 350 348 344 343 343 343 342 341 340 340 342 344 344 342 338 339 339 335 332 331 328 342 351 348 341 336 330 329
12 8 4 2 4 5 7 8 5 2 357 352 347 343 342 339 339 339 336 335 335 334 333 332 331 331 333 334 334 332 329 329 327 325 323 323 329 330 333 333 332 328 324
5 1 355 351 353 353 358 359 357 356 353 349 344 341 336 333 331 329 329 328 328 327 326 324 324 324 324 324 324 323 321 319 317 317 316 314 317 310 315 320 322 320 318
359 356 354 350 346 342 343 347 343 343 343 338 335 333 331 331 329 326 326 326 325 324 323 321 319 317 317 317 316 316 316 315 313 312 311 309 308 307 301 306 308 310 311
356 356 354 350 345 341 339 337 334 336 344 337 334 331 330 330 328 326 325 329 328 325 321 320 317 315 314 315 314 311 311 310 308 308 309 305 303 299 294 295 299 301 301
358 355 352 350 346 344 341 340 339 340 339 336 331 327 327 325 323 321 320 320 320 322 322 320 319 316 313 312 311 310 309 307 308 307 303 302 297 293 287 284 291 295 294
355 355 353 348 346 344 343 341 338 334 328 327 327 325 323 321 319 317 316 313 313 315 315 315 314 314 313 311 309 308 306 305 305 305 305 300 295 292 283 279 287 289 289
346 348 348 346 345 343 341 339 333 328 324 321 321 322 322 319 317 318 316 314 311 309 309 308 310 309 309 308 307 306 304 303 302 301 301 298 294 289 283 278 283 286 287
343 345 346 344 343 341 338 333 329 325 322 321 320 320 320 321 320 318 316 315 313 312 309 308 307 307 308 307 305 304 305 305 303 301 300 297 295 292 284 279 280 282 283
342 346 341 342 342 337 331 327 325 325 325 324 324 324 324 324 321 320 318 316 314 313 311 310 309 307 306 307 306 305 305 305 305 304 303 299 297 294 290 287 283 281 280
341 337 340 339 336 330 327 327 327 329 330 329 330 331 329 327 327 324 321 318 317 314 312 310 310 309 308 307 307 308 308 308 307 306 305 302 300 298 296 291 288 285 279
334 336 338 335 331 328 329 330 332 336 336 334 333 333 330 329 329 328 326 324 323 321 318 314 312 311 310 309 308 309 310 311 311 311 308 304 302 298 295 294 290 285 281
337 337 334 332 332 331 333 335 337 335 335 334 335 333 331 330 329 330 331 330 329 327 325 322 318 316 315 313 311 311 313 313 314 315 311 307 305 302 298 294 289 288 284
334 332 331 332 333 335 337 338 339 339 340 341 338 337 337 333 330 331 331 331 331 330 329 328 327 322 319 316 315 316 318 320 320 319 318 315 313 308 303 298 294 288 286
326 329 332 334 337 340 344 345 344 342 342 340 341 341 340 340 338 335 335 332 336 336 335 336 334 331 329 327 326 326 327 327 331 328 322 320 319 317 312 307 300 292 288
324 328 334 339 341 342 343 343 344 344 345 344 344 344 344 342 340 335 335 334 333 332 334 334 334 334 332 332 333 335 335 334 331 341 332 331 326 324 319 314 309 300 294
326 335 339 340 339 340 344 343 342 342 341 345 346 350 348 346 344 339 336 335 330 327 329 333 334 337 336 332 334 341 346 344 339 336 345 337 335 330 329 324 314 305 306
334 337 339 339 340 343 346 347 344 344 346 347 347 347 350 349 344 342 340 336 336 330 331 330 333 338 345 348 351 354 350 352 354 352 346 353 349 350 350 334 318 310 305
336 337 338 339 342 350 352 349 344 344 345 345 344 348 349 353 350 344 341 341 335 334 333 334 341 355 6 13 9 3 359 359 0 0 359 0 360 7 12 348 337 320 301